This is the latest recevied weather packets stored in our database for station/object K5KHP. If no packets are shown the sender has not sent any weather packets the latest 10 day(s).
| Time | Temp. | Humidity | Pressure | Rain* | Wind** | Luminosity | Snow |
|---|---|---|---|---|---|---|---|
| 1777849800 | 18.89° C | 65% | 1012.1 hPa | 0 mm | - | 330 W/m² | - |
| 1777849496 | 19.44° C | 65% | 1012.5 hPa | 0 mm | - | 276 W/m² | - |
| 1777849194 | 18.89° C | 66% | 1012.6 hPa | 0 mm | - | 305 W/m² | - |
| 1777848891 | 18.33° C | 67% | 1012.5 hPa | 0 mm | - | 274 W/m² | - |
| 1777848586 | 18.33° C | 67% | 1012.5 hPa | 0 mm | - | 254 W/m² | - |
| 1777848283 | 18.33° C | 67% | 1012.5 hPa | 0 mm | - | 246 W/m² | - |
| 1777847981 | 18.33° C | 67% | 1012.7 hPa | 0 mm | - | 225 W/m² | - |
| 1777847679 | 17.78° C | 66% | 1012.6 hPa | 0 mm | - | 273 W/m² | - |
| 1777847374 | 17.78° C | 67% | 1012.8 hPa | 0 mm | - | 214 W/m² | - |
| 1777847073 | 18.33° C | 66% | 1012.8 hPa | 0 mm | - | 206 W/m² | - |
| 1777846771 | 18.33° C | 65% | 1013 hPa | 0 mm | - | 238 W/m² | - |
| 1777846469 | 18.33° C | 66% | 1013 hPa | 0 mm | - | 338 W/m² | - |
| 1777846165 | 18.33° C | 66% | 1013.2 hPa | 0 mm | - | 240 W/m² | - |
| 1777845861 | 17.78° C | 65% | 1013.2 hPa | 0 mm | - | 212 W/m² | - |
| 1777845559 | 18.33° C | 65% | 1013.1 hPa | 0 mm | - | 240 W/m² | - |
| 1777845256 | 18.33° C | 64% | 1013.1 hPa | 0 mm | - | 220 W/m² | - |
| 1777844953 | 17.78° C | 66% | 1013.3 hPa | 0 mm | - | 223 W/m² | - |
| 1777844650 | 17.78° C | 65% | 1013.2 hPa | 0 mm | - | 239 W/m² | - |
| 1777844348 | 18.33° C | 65% | 1013.1 hPa | 0 mm | - | 237 W/m² | - |
| 1777844046 | 17.78° C | 65% | 1013.3 hPa | 0 mm | - | 226 W/m² | - |
| 1777843742 | 17.78° C | 66% | 1013.2 hPa | 0 mm | - | 229 W/m² | - |
| 1777843440 | 18.33° C | 65% | 1013.3 hPa | 0 mm | - | 268 W/m² | - |
| 1777843137 | 17.78° C | 67% | 1013.3 hPa | 0 mm | - | 313 W/m² | - |
| 1777842834 | 17.78° C | 66% | 1013.3 hPa | 0 mm | - | 324 W/m² | - |
| 1777842528 | 17.22° C | 66% | 1013.3 hPa | 0 mm | - | 273 W/m² | - |
* Rain latest hour (hover to see other rain measurements)
** Current wind speed in m/s (hover to see current wind gust speed)